EWG3CM EDDH-LOWI

Flight info

Callsign EWG3CM
Flight time 1h 8m
Altitude 35000
Route AMLUH2G AMLUH M852 DENIX DCT ZUCKA/N0449F310 DCT GALMA M736 RDG/N0450F300 M736 DOSEL/N0450F310 M736 TULSI TULSI3A
Aircraft A319/M-SDE3FGHIRWY/LB1

Departure

Time 2026-04-24 13:08
Airport Hamburg Helmut Schmidt Airport (EDDH)

Arrival

Time 2026-04-24 14:17
Airport Innsbruck Airport (LOWI)
Time Latitude Longitude Altitude Speed Heading
2026-04-24 12:46 53.63292 10.00362 49 ft 0 kts 87°
2026-04-24 13:00 53.63292 10.00359 48 ft 2 kts 87°
2026-04-24 13:01 53.63291 10.00318 48 ft 4 kts 87°
2026-04-24 13:01 53.63290 10.00275 48 ft 4 kts 87°
2026-04-24 13:01 53.63289 10.00240 48 ft 4 kts 90°
2026-04-24 13:01 53.63291 10.00198 48 ft 4 kts 113°
2026-04-24 13:02 53.63305 10.00170 43 ft 4 kts 168°
2026-04-24 13:02 53.63310 10.00168 43 ft 0 kts 176°
2026-04-24 13:04 53.63309 10.00168 43 ft 1 kts 176°
2026-04-24 13:04 53.63296 10.00169 46 ft 3 kts 176°
2026-04-24 13:05 53.63255 10.00174 48 ft 8 kts 176°
2026-04-24 13:05 53.63180 10.00183 48 ft 13 kts 176°
2026-04-24 13:05 53.63083 10.00190 48 ft 15 kts 191°
2026-04-24 13:05 53.62985 10.00093 48 ft 18 kts 213°
2026-04-24 13:06 53.62909 9.99960 48 ft 12 kts 246°
2026-04-24 13:06 53.62896 9.99913 48 ft 0 kts 242°
2026-04-24 13:06 53.62888 9.99885 46 ft 6 kts 243°
2026-04-24 13:06 53.62861 9.99774 44 ft 13 kts 273°
2026-04-24 13:07 53.62899 9.99718 45 ft 0 kts 334°
2026-04-24 13:07 53.62902 9.99715 45 ft 2 kts 334°
2026-04-24 13:07 53.62993 9.99637 44 ft 41 kts 332°
2026-04-24 13:07 53.63438 9.99252 47 ft 101 kts 333°
2026-04-24 13:08 53.64229 9.98561 113 ft 148 kts 327°
2026-04-24 13:08 53.65143 9.97800 831 ft 147 kts 330°
2026-04-24 13:08 53.66051 9.97020 1593 ft 150 kts 329°
2026-04-24 13:09 53.68178 9.95164 2548 ft 197 kts 332°
2026-04-24 13:09 53.69529 9.94652 3509 ft 203 kts 357°
2026-04-24 13:09 53.70935 9.94681 4592 ft 202 kts 359°
2026-04-24 13:09 53.72345 9.94984 5501 ft 210 kts 21°
2026-04-24 13:10 53.73403 9.96746 6399 ft 226 kts 59°
2026-04-24 13:10 53.73948 9.99281 7331 ft 232 kts 68°
2026-04-24 13:10 53.74190 10.02024 8207 ft 245 kts 88°
2026-04-24 13:10 53.73789 10.04904 8971 ft 265 kts 109°
2026-04-24 13:11 53.72842 10.07766 9463 ft 292 kts 118°
2026-04-24 13:11 53.71797 10.10774 10095 ft 306 kts 117°
2026-04-24 13:11 53.70700 10.13966 10626 ft 326 kts 119°
2026-04-24 13:11 53.69265 10.17120 10942 ft 352 kts 131°
2026-04-24 13:12 53.67356 10.19864 11446 ft 368 kts 145°
2026-04-24 13:12 53.65076 10.21923 12187 ft 374 kts 158°
2026-04-24 13:12 53.62582 10.23231 12972 ft 378 kts 166°
2026-04-24 13:12 53.60031 10.24395 13769 ft 381 kts 166°
2026-04-24 13:13 53.57457 10.25575 14495 ft 385 kts 166°
2026-04-24 13:13 53.54866 10.26769 15174 ft 388 kts 166°
2026-04-24 13:13 53.52275 10.27961 15882 ft 391 kts 166°
2026-04-24 13:13 53.49641 10.29168 16596 ft 394 kts 166°
2026-04-24 13:14 53.46983 10.30380 17297 ft 397 kts 166°
2026-04-24 13:14 53.44304 10.31596 17996 ft 400 kts 167°
2026-04-24 13:14 53.41603 10.32818 18668 ft 403 kts 167°
2026-04-24 13:14 53.38884 10.34044 19283 ft 407 kts 167°
2026-04-24 13:15 53.36134 10.35283 19879 ft 410 kts 167°
2026-04-24 13:15 53.33366 10.36527 20493 ft 413 kts 167°
2026-04-24 13:15 53.30612 10.37759 21097 ft 416 kts 168°
2026-04-24 13:15 53.27801 10.39012 21696 ft 419 kts 168°
2026-04-24 13:16 53.24969 10.40273 22269 ft 422 kts 168°
2026-04-24 13:16 53.22115 10.41550 22821 ft 425 kts 168°
2026-04-24 13:16 53.19245 10.42834 23364 ft 429 kts 168°
2026-04-24 13:16 53.16353 10.44128 23884 ft 432 kts 168°
2026-04-24 13:17 53.13446 10.45428 24328 ft 434 kts 168°
2026-04-24 13:17 53.10507 10.46617 24782 ft 436 kts 171°
2026-04-24 13:17 53.07522 10.47630 25238 ft 437 kts 173°
2026-04-24 13:17 53.04555 10.48512 25686 ft 439 kts 174°
2026-04-24 13:18 53.01538 10.49355 26130 ft 441 kts 174°
2026-04-24 13:18 52.98492 10.50208 26582 ft 444 kts 174°
2026-04-24 13:18 52.95440 10.51089 27020 ft 446 kts 173°
2026-04-24 13:18 52.92372 10.52008 27456 ft 449 kts 173°
2026-04-24 13:19 52.89295 10.52956 27885 ft 452 kts 173°
2026-04-24 13:19 52.86199 10.53926 28312 ft 454 kts 173°
2026-04-24 13:19 52.83082 10.54905 28727 ft 456 kts 173°
2026-04-24 13:19 52.79946 10.55884 29132 ft 459 kts 173°
2026-04-24 13:20 52.76800 10.56861 29523 ft 461 kts 173°
2026-04-24 13:20 52.73679 10.57822 29934 ft 462 kts 173°
2026-04-24 13:20 52.70474 10.58807 30315 ft 464 kts 173°
2026-04-24 13:20 52.67326 10.59772 30589 ft 468 kts 173°
2026-04-24 13:21 52.64072 10.60767 30877 ft 471 kts 173°
2026-04-24 13:21 52.60892 10.61742 31173 ft 473 kts 173°
2026-04-24 13:21 52.57652 10.62734 31578 ft 472 kts 174°
2026-04-24 13:21 52.54429 10.63713 32037 ft 471 kts 174°
2026-04-24 13:22 52.51209 10.64690 32486 ft 469 kts 174°
2026-04-24 13:22 52.48013 10.65659 32961 ft 467 kts 174°
2026-04-24 13:22 52.44813 10.66630 33440 ft 466 kts 174°
2026-04-24 13:22 52.41631 10.67595 33907 ft 464 kts 174°
2026-04-24 13:23 52.38456 10.68552 34352 ft 463 kts 174°
2026-04-24 13:23 52.35294 10.69500 34765 ft 462 kts 175°
2026-04-24 13:23 52.32129 10.70447 35095 ft 462 kts 175°
2026-04-24 13:23 52.28970 10.71392 35183 ft 460 kts 175°
2026-04-24 13:24 52.22740 10.73270 35192 ft 456 kts 174°
2026-04-24 13:24 52.16508 10.75138 35188 ft 455 kts 174°
2026-04-24 13:25 52.10275 10.77003 35186 ft 455 kts 174°
2026-04-24 13:25 52.04041 10.78855 35183 ft 455 kts 175°
2026-04-24 13:26 51.98861 10.80387 35169 ft 455 kts 174°
2026-04-24 13:26 51.91622 10.82530 35155 ft 456 kts 174°
2026-04-24 13:27 51.86380 10.84074 35151 ft 456 kts 174°
2026-04-24 13:27 51.80230 10.86435 35154 ft 462 kts 165°
2026-04-24 13:28 51.74136 10.89869 35146 ft 463 kts 165°
2026-04-24 13:28 51.68054 10.93336 35153 ft 463 kts 165°
2026-04-24 13:29 51.62001 10.96671 35146 ft 462 kts 166°
2026-04-24 13:29 51.55892 10.99921 35154 ft 462 kts 166°
2026-04-24 13:30 51.49785 11.03173 35138 ft 462 kts 165°
2026-04-24 13:30 51.43687 11.06448 35150 ft 461 kts 165°
2026-04-24 13:31 51.37587 11.09716 35161 ft 462 kts 165°
2026-04-24 13:31 51.31492 11.12961 35153 ft 463 kts 165°
2026-04-24 13:32 51.25413 11.16197 35144 ft 463 kts 165°
2026-04-24 13:32 51.19294 11.19449 35156 ft 463 kts 165°
2026-04-24 13:33 51.13215 11.22654 35164 ft 463 kts 165°
2026-04-24 13:33 51.07076 11.25890 35159 ft 463 kts 165°
2026-04-24 13:34 51.00969 11.29111 35152 ft 462 kts 164°
2026-04-24 13:34 50.94898 11.32353 35159 ft 462 kts 164°
2026-04-24 13:35 50.88794 11.35639 35164 ft 462 kts 164°
2026-04-24 13:35 50.82697 11.38901 35155 ft 463 kts 164°
2026-04-24 13:36 50.76593 11.42149 35136 ft 463 kts 164°
2026-04-24 13:36 50.70482 11.45385 35143 ft 463 kts 164°
2026-04-24 13:37 50.64369 11.48620 35147 ft 463 kts 164°
2026-04-24 13:37 50.58295 11.51827 35141 ft 463 kts 164°
2026-04-24 13:38 50.52226 11.55241 35144 ft 464 kts 160°
2026-04-24 13:38 50.46273 11.59235 35140 ft 465 kts 158°
2026-04-24 13:39 50.40366 11.63351 35150 ft 465 kts 158°
2026-04-24 13:39 50.34415 11.67348 35140 ft 465 kts 159°
2026-04-24 13:40 50.28471 11.71234 35131 ft 466 kts 159°
2026-04-24 13:40 50.22479 11.75123 35140 ft 466 kts 159°
2026-04-24 13:41 50.16494 11.79027 35141 ft 466 kts 159°
2026-04-24 13:41 50.10508 11.82947 35138 ft 466 kts 159°
2026-04-24 13:42 50.04528 11.86851 35132 ft 466 kts 159°
2026-04-24 13:42 49.98548 11.90731 35122 ft 465 kts 159°
2026-04-24 13:43 49.92571 11.94599 35112 ft 465 kts 158°
2026-04-24 13:43 49.86624 11.98428 35101 ft 466 kts 158°
2026-04-24 13:44 49.80646 12.02300 35099 ft 466 kts 158°
2026-04-24 13:44 49.74655 12.06166 35098 ft 466 kts 158°
2026-04-24 13:45 49.68955 12.10897 35098 ft 466 kts 143°
2026-04-24 13:45 49.63870 12.17117 35100 ft 466 kts 141°
2026-04-24 13:46 49.58790 12.23355 35113 ft 467 kts 141°
2026-04-24 13:46 49.53709 12.29597 35090 ft 467 kts 141°
2026-04-24 13:47 49.48654 12.35799 35106 ft 467 kts 141°
2026-04-24 13:47 49.43566 12.42010 35105 ft 467 kts 141°
2026-04-24 13:48 49.38457 12.48157 35103 ft 467 kts 145°
2026-04-24 13:48 49.32638 12.52481 35106 ft 465 kts 165°
2026-04-24 13:49 49.26295 12.53761 35098 ft 463 kts 182°
2026-04-24 13:49 49.19841 12.53424 35099 ft 464 kts 182°
2026-04-24 13:50 49.13389 12.53109 35105 ft 464 kts 182°
2026-04-24 13:50 49.06933 12.52798 35109 ft 464 kts 182°
2026-04-24 13:51 49.00475 12.52453 35115 ft 464 kts 183°
2026-04-24 13:51 48.94020 12.51953 35118 ft 464 kts 184°
2026-04-24 13:52 48.87623 12.51409 35117 ft 464 kts 184°
2026-04-24 13:52 48.81172 12.50897 35115 ft 464 kts 183°
2026-04-24 13:53 48.74721 12.50406 35115 ft 464 kts 183°
2026-04-24 13:53 48.68271 12.49917 35116 ft 464 kts 183°
2026-04-24 13:54 48.61814 12.49431 35109 ft 464 kts 183°
2026-04-24 13:54 48.55353 12.48934 35112 ft 464 kts 183°
2026-04-24 13:55 48.48905 12.48322 35108 ft 464 kts 188°
2026-04-24 13:55 48.42805 12.45517 35110 ft 462 kts 207°
2026-04-24 13:56 48.37564 12.40032 35110 ft 459 kts 222°
2026-04-24 13:56 48.35129 12.36894 34903 ft 461 kts 222°
2026-04-24 13:56 48.32688 12.33776 34644 ft 462 kts 221°
2026-04-24 13:57 48.30219 12.30638 33801 ft 467 kts 221°
2026-04-24 13:57 48.27727 12.27479 32728 ft 474 kts 221°
2026-04-24 13:57 48.25186 12.24262 31638 ft 480 kts 221°
2026-04-24 13:57 48.22621 12.21013 30594 ft 484 kts 221°
2026-04-24 13:58 48.20026 12.17732 29303 ft 491 kts 221°
2026-04-24 13:58 48.17438 12.14469 28795 ft 480 kts 221°
2026-04-24 13:58 48.14907 12.11283 28084 ft 473 kts 221°
2026-04-24 13:58 48.12398 12.08120 27383 ft 467 kts 221°
2026-04-24 13:59 48.09927 12.05002 26687 ft 462 kts 221°
2026-04-24 13:59 48.07479 12.01918 25996 ft 457 kts 221°
2026-04-24 13:59 48.05054 11.98870 25313 ft 453 kts 221°
2026-04-24 13:59 48.02652 11.95858 24637 ft 449 kts 221°
2026-04-24 14:00 48.00296 11.92914 23984 ft 445 kts 220°
2026-04-24 14:00 47.97928 11.89961 23277 ft 441 kts 220°
2026-04-24 14:00 47.95593 11.87054 22647 ft 434 kts 220°
2026-04-24 14:00 47.93277 11.84230 22052 ft 428 kts 217°
2026-04-24 14:01 47.90733 11.81956 21476 ft 423 kts 206°
2026-04-24 14:01 47.87991 11.80455 20931 ft 418 kts 195°
2026-04-24 14:01 47.85138 11.79737 20376 ft 414 kts 184°
2026-04-24 14:01 47.82275 11.79567 19831 ft 410 kts 181°
2026-04-24 14:02 47.79435 11.79412 19282 ft 406 kts 182°
2026-04-24 14:02 47.76655 11.79250 18735 ft 403 kts 182°
2026-04-24 14:02 47.73857 11.79082 18125 ft 400 kts 182°
2026-04-24 14:02 47.71099 11.79135 17538 ft 395 kts 174°
2026-04-24 14:03 47.68424 11.79905 16960 ft 388 kts 163°
2026-04-24 14:03 47.67111 11.80569 16667 ft 386 kts 158°
2026-04-24 14:03 47.65472 11.81498 16268 ft 383 kts 158°
2026-04-24 14:03 47.62997 11.82894 15694 ft 380 kts 159°
2026-04-24 14:04 47.60523 11.84285 15053 ft 378 kts 159°
2026-04-24 14:04 47.58060 11.85663 14402 ft 378 kts 159°
2026-04-24 14:04 47.55606 11.87031 13826 ft 374 kts 159°
2026-04-24 14:04 47.53181 11.88383 13197 ft 371 kts 159°
2026-04-24 14:05 47.50780 11.89722 12604 ft 366 kts 159°
2026-04-24 14:05 47.48434 11.91033 12020 ft 363 kts 159°
2026-04-24 14:05 47.46023 11.92200 11431 ft 359 kts 169°
2026-04-24 14:05 47.43592 11.92497 10859 ft 354 kts 184°
2026-04-24 14:06 47.41214 11.91852 10554 ft 338 kts 200°
2026-04-24 14:06 47.39146 11.90481 10465 ft 314 kts 213°
2026-04-24 14:06 47.37313 11.88870 10367 ft 297 kts 213°
2026-04-24 14:06 47.35576 11.87333 10236 ft 284 kts 218°
2026-04-24 14:07 47.34145 11.85468 10108 ft 267 kts 232°
2026-04-24 14:07 47.33135 11.83257 9933 ft 255 kts 246°
2026-04-24 14:07 47.32433 11.80875 9467 ft 251 kts 252°
2026-04-24 14:07 47.31947 11.78447 9018 ft 243 kts 260°
2026-04-24 14:08 47.31608 11.75997 8604 ft 245 kts 261°
2026-04-24 14:08 47.31282 11.73528 8188 ft 245 kts 262°
2026-04-24 14:08 47.30950 11.71065 7792 ft 246 kts 261°
2026-04-24 14:08 47.30618 11.68621 7384 ft 247 kts 261°
2026-04-24 14:09 47.30275 11.66108 6965 ft 248 kts 260°
2026-04-24 14:09 47.29941 11.63661 6582 ft 246 kts 260°
2026-04-24 14:09 47.29605 11.61213 6167 ft 233 kts 260°
2026-04-24 14:09 47.29297 11.58961 5797 ft 222 kts 260°
2026-04-24 14:10 47.29094 11.57479 5545 ft 216 kts 260°
2026-04-24 14:10 47.28712 11.54702 5195 ft 201 kts 260°
2026-04-24 14:10 47.28444 11.52754 4982 ft 188 kts 260°
2026-04-24 14:10 47.28190 11.50911 4719 ft 179 kts 259°
2026-04-24 14:11 47.27948 11.49149 4466 ft 172 kts 260°
2026-04-24 14:11 47.27714 11.47453 4213 ft 166 kts 260°
2026-04-24 14:11 47.27114 11.44285 3778 ft 158 kts 241°
2026-04-24 14:12 47.26524 11.42959 3715 ft 153 kts 236°
2026-04-24 14:12 47.25910 11.41684 3719 ft 153 kts 236°
2026-04-24 14:12 47.25296 11.40410 3713 ft 152 kts 236°
2026-04-24 14:12 47.24680 11.39142 3708 ft 152 kts 236°
2026-04-24 14:13 47.24074 11.37872 3713 ft 152 kts 236°
2026-04-24 14:13 47.23469 11.36581 3715 ft 157 kts 241°
2026-04-24 14:13 47.23136 11.35111 3795 ft 152 kts 270°
2026-04-24 14:13 47.23089 11.33574 3807 ft 150 kts 269°
2026-04-24 14:14 47.23036 11.32047 3749 ft 149 kts 269°
2026-04-24 14:14 47.22980 11.30527 3736 ft 148 kts 268°
2026-04-24 14:14 47.22920 11.27491 3684 ft 149 kts 290°
2026-04-24 14:15 47.23629 11.26486 3568 ft 147 kts 343°
2026-04-24 14:15 47.24563 11.26704 3362 ft 138 kts 36°
2026-04-24 14:15 47.24969 11.27408 3156 ft 137 kts 57°
2026-04-24 14:15 47.25364 11.28686 2779 ft 137 kts 71°
2026-04-24 14:16 47.25547 11.30015 2500 ft 129 kts 79°
2026-04-24 14:16 47.25675 11.31288 2282 ft 124 kts 78°
2026-04-24 14:16 47.25821 11.32545 2043 ft 122 kts 78°
2026-04-24 14:17 47.26045 11.34618 1904 ft 47 kts 81°
2026-04-24 14:17 47.26089 11.35030 1904 ft 41 kts 81°
2026-04-24 14:17 47.26014 11.35269 1904 ft 8 kts 171°
2026-04-24 14:18 47.25950 11.35284 1894 ft 11 kts 171°
2026-04-24 14:18 47.25898 11.35236 1904 ft 11 kts 260°
2026-04-24 14:18 47.25886 11.35115 1904 ft 12 kts 261°
2026-04-24 14:18 47.25869 11.35040 1896 ft 5 kts 217°
2026-04-24 14:19 47.25835 11.35048 1894 ft 4 kts 169°
2026-04-24 14:19 47.25818 11.35052 1904 ft 0 kts 171°